This is the latest recevied weather packets stored in our database for station/object W1TG-2. If no packets are shown the sender has not sent any weather packets the latest 1 day(s).
| Time | Temp. | Humidity | Pressure | Rain* | Wind** | Luminosity | Snow |
|---|---|---|---|---|---|---|---|
| 1778023444 | 22.78° C | 53% | 1005.1 hPa | 0 mm | 2.68 m/s, 195° | - | - |
| 1778023083 | 23.33° C | 53% | 1005 hPa | 0 mm | 3.13 m/s, 195° | - | - |
| 1778022723 | 23.33° C | 52% | 1004.8 hPa | 0 mm | 3.13 m/s, 196° | - | - |
| 1778022363 | 23.33° C | 52% | 1004.8 hPa | 0 mm | 3.13 m/s, 200° | - | - |
| 1778022004 | 23.33° C | 51% | 1004.8 hPa | 0 mm | 3.13 m/s, 199° | - | - |
| 1778021644 | 23.89° C | 50% | 1004.6 hPa | 0 mm | 3.13 m/s, 194° | - | - |
| 1778021283 | 23.89° C | 50% | 1004.5 hPa | 0 mm | 3.58 m/s, 196° | - | - |
| 1778020923 | 23.89° C | 50% | 1004.6 hPa | 0 mm | 4.47 m/s, 195° | - | - |
| 1778020564 | 23.33° C | 52% | 1004.5 hPa | 0 mm | 3.58 m/s, 185° | - | - |
| 1778020216 | 23.33° C | 53% | 1004.3 hPa | 0 mm | 3.13 m/s, 179° | - | - |
| 1778019843 | 22.78° C | 53% | 1004.2 hPa | 0 mm | 3.13 m/s, 189° | - | - |
| 1778019484 | 22.78° C | 54% | 1004.1 hPa | 0 mm | 3.58 m/s, 190° | - | - |
| 1778019124 | 22.78° C | 54% | 1004.1 hPa | 0 mm | 3.58 m/s, 189° | - | - |
| 1778018763 | 22.78° C | 55% | 1004.1 hPa | 0 mm | 3.13 m/s, 193° | - | - |
| 1778018403 | 22.22° C | 56% | 1004.1 hPa | 0 mm | 3.13 m/s, 189° | - | - |
| 1778018044 | 22.22° C | 55% | 1004.1 hPa | 0 mm | 3.58 m/s, 189° | - | - |
| 1778017684 | 22.22° C | 55% | 1003.8 hPa | 0 mm | 3.58 m/s, 191° | - | - |
| 1778017323 | 22.78° C | 55% | 1003.9 hPa | 0 mm | 3.13 m/s, 195° | - | - |
| 1778016964 | 22.22° C | 56% | 1003.8 hPa | 0 mm | 2.24 m/s, 183° | - | - |
| 1778016604 | 22.22° C | 56% | 1003.8 hPa | 0 mm | 2.24 m/s, 169° | - | - |
| 1778016244 | 22.22° C | 56% | 1003.7 hPa | 0 mm | 2.68 m/s, 171° | - | - |
| 1778015883 | 21.67° C | 57% | 1003.6 hPa | 0 mm | 2.24 m/s, 181° | - | - |
| 1778015524 | 21.67° C | 57% | 1003.5 hPa | 0 mm | 2.68 m/s, 165° | - | - |
| 1778015164 | 22.22° C | 55% | 1003.6 hPa | 0 mm | 3.13 m/s, 175° | - | - |
| 1778014803 | 22.22° C | 56% | 1003.5 hPa | 0 mm | 3.13 m/s, 179° | - | - |
* Rain latest hour (hover to see other rain measurements)
** Current wind speed in m/s (hover to see current wind gust speed)